Year,Month,Day,Hour,Minute,Value (Times are PST for temperature in C)
2009,07,10,00,00,10.60
2009,07,10,00,01,10.60
2009,07,10,00,02,10.60
2009,07,10,00,03,10.60
2009,07,10,00,04,10.60
2009,07,10,00,05,10.60
2009,07,10,00,06,10.60
2009,07,10,00,07,10.60
2009,07,10,00,08,10.60
2009,07,10,00,09,10.60
2009,07,10,00,10,10.60
2009,07,10,00,11,10.50
2009,07,10,00,12,10.40
2009,07,10,00,13,10.40
2009,07,10,00,14,10.40
2009,07,10,00,15,10.40
2009,07,10,00,16,10.40
2009,07,10,00,17,10.40
2009,07,10,00,18,10.40
2009,07,10,00,19,10.40
2009,07,10,00,20,10.40
2009,07,10,00,21,10.40
2009,07,10,00,22,10.40
2009,07,10,00,23,10.40
2009,07,10,00,24,10.40
2009,07,10,00,25,10.40
2009,07,10,00,26,10.40
2009,07,10,00,27,10.40
2009,07,10,00,28,10.40
2009,07,10,00,29,10.30
2009,07,10,00,30,10.30
2009,07,10,00,31,10.30
2009,07,10,00,32,10.30
2009,07,10,00,33,10.20
2009,07,10,00,34,10.20
2009,07,10,00,35,10.20
2009,07,10,00,36,10.20
2009,07,10,00,37,10.20
2009,07,10,00,38,10.10
2009,07,10,00,39,10.10
2009,07,10,00,40,10.10
2009,07,10,00,41,10.10
2009,07,10,00,42,10.10
2009,07,10,00,43,10.10
2009,07,10,00,44,10.10
2009,07,10,00,45,10.10
2009,07,10,00,46,10.10
2009,07,10,00,47,10.10
2009,07,10,00,48,10.10
2009,07,10,00,49,10.10
2009,07,10,00,50,10.10
2009,07,10,00,51,10.10
2009,07,10,00,52,10.10
2009,07,10,00,53,10.10
2009,07,10,00,54,10.10
2009,07,10,00,55,10.10
2009,07,10,00,56,10.10
2009,07,10,00,57,10.10
2009,07,10,00,58,10.10
2009,07,10,00,59,10.00
2009,07,10,01,00,9.90
2009,07,10,01,01,9.90
2009,07,10,01,02,9.90
2009,07,10,01,03,9.90
2009,07,10,01,04,9.90
2009,07,10,01,05,9.90
2009,07,10,01,06,10.00
2009,07,10,01,07,10.10
2009,07,10,01,08,10.10
2009,07,10,01,09,10.10
2009,07,10,01,10,10.10
2009,07,10,01,11,10.10
2009,07,10,01,12,10.10
2009,07,10,01,13,10.00
2009,07,10,01,14,10.10
2009,07,10,01,15,10.10
2009,07,10,01,16,10.10
2009,07,10,01,17,10.10
2009,07,10,01,18,10.10
2009,07,10,01,19,10.10
2009,07,10,01,20,10.10
2009,07,10,01,21,10.10
2009,07,10,01,22,10.10
2009,07,10,01,23,10.10
2009,07,10,01,24,10.10
2009,07,10,01,25,9.90
2009,07,10,01,26,9.90
2009,07,10,01,27,9.90
2009,07,10,01,28,9.90
2009,07,10,01,29,9.90
2009,07,10,01,30,9.90
2009,07,10,01,31,9.90
2009,07,10,01,32,9.90
2009,07,10,01,33,9.90
2009,07,10,01,34,9.90
2009,07,10,01,35,9.90
2009,07,10,01,36,9.80
2009,07,10,01,37,9.80
2009,07,10,01,38,9.80
2009,07,10,01,39,9.80
2009,07,10,01,40,9.70
2009,07,10,01,41,9.70
2009,07,10,01,42,9.70
2009,07,10,01,43,9.70
2009,07,10,01,44,9.70
2009,07,10,01,45,9.70
2009,07,10,01,46,9.70
2009,07,10,01,47,9.70
2009,07,10,01,48,9.70
2009,07,10,01,49,9.70
2009,07,10,01,50,9.70
2009,07,10,01,51,9.70
2009,07,10,01,52,9.70
2009,07,10,01,53,9.70
2009,07,10,01,54,9.70
2009,07,10,01,55,9.70
2009,07,10,01,56,9.70
2009,07,10,01,57,9.70
2009,07,10,01,58,9.70
2009,07,10,01,59,9.70
2009,07,10,02,00,9.70
2009,07,10,02,01,9.70
2009,07,10,02,02,9.70
2009,07,10,02,03,9.70
2009,07,10,02,04,9.70
2009,07,10,02,05,9.60
2009,07,10,02,06,9.60
2009,07,10,02,07,9.60
2009,07,10,02,08,9.60
2009,07,10,02,09,9.60
2009,07,10,02,10,9.60
2009,07,10,02,11,9.60
2009,07,10,02,12,9.60
2009,07,10,02,13,9.60
2009,07,10,02,14,9.60
2009,07,10,02,15,9.60
2009,07,10,02,16,9.70
2009,07,10,02,17,9.70
2009,07,10,02,18,9.70
2009,07,10,02,19,9.70
2009,07,10,02,20,9.70
2009,07,10,02,21,9.70
2009,07,10,02,22,9.70
2009,07,10,02,23,9.70
2009,07,10,02,24,9.70
2009,07,10,02,25,9.70
2009,07,10,02,26,9.70
2009,07,10,02,27,9.70
2009,07,10,02,28,9.70
2009,07,10,02,29,9.70
2009,07,10,02,30,9.70
2009,07,10,02,31,9.70
2009,07,10,02,32,9.80
2009,07,10,02,33,9.80
2009,07,10,02,34,9.70
2009,07,10,02,35,9.70
2009,07,10,02,36,9.70
2009,07,10,02,37,9.70
2009,07,10,02,38,9.60
2009,07,10,02,39,9.60
2009,07,10,02,40,9.60
2009,07,10,02,41,9.60
2009,07,10,02,42,9.60
2009,07,10,02,43,9.50
2009,07,10,02,44,9.50
2009,07,10,02,45,9.60
2009,07,10,02,46,9.60
2009,07,10,02,47,9.70
2009,07,10,02,48,9.70
2009,07,10,02,49,9.70
2009,07,10,02,50,9.70
2009,07,10,02,51,9.60
2009,07,10,02,52,9.60
2009,07,10,02,53,9.60
2009,07,10,02,54,9.60
2009,07,10,02,55,9.60
2009,07,10,02,56,9.70
2009,07,10,02,57,9.60
2009,07,10,02,58,9.60
2009,07,10,02,59,9.60
2009,07,10,03,00,9.60
2009,07,10,03,01,9.60
2009,07,10,03,02,9.60
2009,07,10,03,03,9.50
2009,07,10,03,04,9.50
2009,07,10,03,05,9.50
2009,07,10,03,06,9.40
2009,07,10,03,07,9.40
2009,07,10,03,08,9.40
2009,07,10,03,09,9.40
2009,07,10,03,10,9.30
2009,07,10,03,11,9.40
2009,07,10,03,12,9.40
2009,07,10,03,13,9.40
2009,07,10,03,14,9.40
2009,07,10,03,15,9.40
2009,07,10,03,16,9.30
2009,07,10,03,17,9.30
2009,07,10,03,18,9.40
2009,07,10,03,19,9.40
2009,07,10,03,20,9.40
2009,07,10,03,21,9.40
2009,07,10,03,22,9.40
2009,07,10,03,23,9.40
2009,07,10,03,24,9.40
2009,07,10,03,25,9.30
2009,07,10,03,26,9.30
2009,07,10,03,27,9.30
2009,07,10,03,28,9.20
2009,07,10,03,29,9.20
2009,07,10,03,30,9.10
2009,07,10,03,31,9.10
2009,07,10,03,32,9.10
2009,07,10,03,33,9.10
2009,07,10,03,34,9.10
2009,07,10,03,35,9.20
2009,07,10,03,36,9.20
2009,07,10,03,37,9.20
2009,07,10,03,38,9.20
2009,07,10,03,39,9.20
2009,07,10,03,40,9.20
2009,07,10,03,41,9.20
2009,07,10,03,42,9.20
2009,07,10,03,43,9.20
2009,07,10,03,44,9.20
2009,07,10,03,45,9.20
2009,07,10,03,46,9.20
2009,07,10,03,47,9.20
2009,07,10,03,48,9.20
2009,07,10,03,49,9.20
2009,07,10,03,50,9.20
2009,07,10,03,51,9.20
2009,07,10,03,52,9.20
2009,07,10,03,53,9.20
2009,07,10,03,54,9.20
2009,07,10,03,55,9.10
2009,07,10,03,56,9.10
2009,07,10,03,57,9.10
2009,07,10,03,58,9.10
2009,07,10,03,59,9.10
2009,07,10,04,00,9.10
2009,07,10,04,01,9.10
2009,07,10,04,02,9.20
2009,07,10,04,03,9.20
2009,07,10,04,04,9.20
2009,07,10,04,05,9.10
2009,07,10,04,06,9.10
2009,07,10,04,07,9.10
2009,07,10,04,08,9.00
2009,07,10,04,09,9.00
2009,07,10,04,10,8.90
2009,07,10,04,11,8.90
2009,07,10,04,12,8.80
2009,07,10,04,13,8.70
2009,07,10,04,14,8.70
2009,07,10,04,15,8.70
2009,07,10,04,16,8.70
2009,07,10,04,17,8.70
2009,07,10,04,18,8.60
2009,07,10,04,19,8.60
2009,07,10,04,20,8.60
2009,07,10,04,21,8.60
2009,07,10,04,22,8.70
2009,07,10,04,23,8.70
2009,07,10,04,24,8.80
2009,07,10,04,25,8.90
2009,07,10,04,26,8.90
2009,07,10,04,27,9.00
2009,07,10,04,28,9.10
2009,07,10,04,29,9.10
2009,07,10,04,30,9.20
2009,07,10,04,31,9.20
2009,07,10,04,32,9.20
2009,07,10,04,33,9.20
2009,07,10,04,34,9.20
2009,07,10,04,35,9.20
2009,07,10,04,36,9.20
2009,07,10,04,37,9.20
2009,07,10,04,38,9.20
2009,07,10,04,39,9.30
2009,07,10,04,40,9.30
2009,07,10,04,41,9.30
2009,07,10,04,42,9.30
2009,07,10,04,43,9.30
2009,07,10,04,44,9.30
2009,07,10,04,45,9.30
2009,07,10,04,46,9.20
2009,07,10,04,47,9.20
2009,07,10,04,48,9.20
2009,07,10,04,49,9.10
2009,07,10,04,50,9.00
2009,07,10,04,51,9.00
2009,07,10,04,52,8.90
2009,07,10,04,53,8.90
2009,07,10,04,54,8.80
2009,07,10,04,55,8.80
2009,07,10,04,56,8.80
2009,07,10,04,57,8.70
2009,07,10,04,58,8.70
2009,07,10,04,59,8.70
2009,07,10,05,00,8.70
2009,07,10,05,01,8.80
2009,07,10,05,02,8.80
2009,07,10,05,03,8.90
2009,07,10,05,04,8.90
2009,07,10,05,05,9.00
2009,07,10,05,06,9.00
2009,07,10,05,07,9.10
2009,07,10,05,08,9.10
2009,07,10,05,09,9.20
2009,07,10,05,10,9.10
2009,07,10,05,11,9.10
2009,07,10,05,12,9.00
2009,07,10,05,13,8.90
2009,07,10,05,14,8.80
2009,07,10,05,15,8.80
2009,07,10,05,16,8.70
2009,07,10,05,17,8.70
2009,07,10,05,18,8.70
2009,07,10,05,19,8.70
2009,07,10,05,20,8.80
2009,07,10,05,21,8.90
2009,07,10,05,22,9.00
2009,07,10,05,23,9.00
2009,07,10,05,24,9.10
2009,07,10,05,25,9.10
2009,07,10,05,26,9.10
2009,07,10,05,27,9.10
2009,07,10,05,28,9.10
2009,07,10,05,29,9.10
2009,07,10,05,30,9.20
2009,07,10,05,31,9.20
2009,07,10,05,32,9.30
2009,07,10,05,33,9.40
2009,07,10,05,34,9.40
2009,07,10,05,35,9.50
2009,07,10,05,36,9.40
2009,07,10,05,37,9.30
2009,07,10,05,38,9.20
2009,07,10,05,39,9.20
2009,07,10,05,40,9.10
2009,07,10,05,41,9.10
2009,07,10,05,42,9.10
2009,07,10,05,43,9.10
2009,07,10,05,44,9.10
2009,07,10,05,45,9.10
2009,07,10,05,46,9.10
2009,07,10,05,47,9.10
2009,07,10,05,48,9.20
2009,07,10,05,49,9.20
2009,07,10,05,50,9.20
2009,07,10,05,51,9.20
2009,07,10,05,52,9.30
2009,07,10,05,53,9.30
2009,07,10,05,54,9.40
2009,07,10,05,55,9.40
2009,07,10,05,56,9.30
2009,07,10,05,57,9.30
2009,07,10,05,58,9.30
2009,07,10,05,59,9.30
2009,07,10,06,00,9.20
2009,07,10,06,01,9.20
2009,07,10,06,02,9.20
2009,07,10,06,03,9.10
2009,07,10,06,04,9.10
2009,07,10,06,05,9.00
2009,07,10,06,06,8.90
2009,07,10,06,07,8.90
2009,07,10,06,08,8.90
2009,07,10,06,09,8.80
2009,07,10,06,10,8.90
2009,07,10,06,11,8.90
2009,07,10,06,12,8.90
2009,07,10,06,13,8.90
2009,07,10,06,14,9.00
2009,07,10,06,15,9.00
2009,07,10,06,16,9.00
2009,07,10,06,17,9.10
2009,07,10,06,18,9.10
2009,07,10,06,19,9.20
2009,07,10,06,20,9.20
2009,07,10,06,21,9.20
2009,07,10,06,22,9.20
2009,07,10,06,23,9.30
2009,07,10,06,24,9.40
2009,07,10,06,25,9.50
2009,07,10,06,26,9.50
2009,07,10,06,27,9.60
2009,07,10,06,28,9.60
2009,07,10,06,29,9.70
2009,07,10,06,30,9.70
2009,07,10,06,31,9.80
2009,07,10,06,32,9.90
2009,07,10,06,33,9.90
2009,07,10,06,34,9.90
2009,07,10,06,35,10.10
2009,07,10,06,36,10.10
2009,07,10,06,37,10.10
2009,07,10,06,38,10.20
2009,07,10,06,39,10.20
2009,07,10,06,40,10.20
2009,07,10,06,41,10.30
2009,07,10,06,42,10.30
2009,07,10,06,43,10.40
2009,07,10,06,44,10.40
2009,07,10,06,45,10.40
2009,07,10,06,46,10.60
2009,07,10,06,47,10.70
2009,07,10,06,48,10.80
2009,07,10,06,49,10.90
2009,07,10,06,50,10.90
2009,07,10,06,51,10.90
2009,07,10,06,52,10.90
2009,07,10,06,53,10.90
2009,07,10,06,54,11.10
2009,07,10,06,55,11.10
2009,07,10,06,56,11.10
2009,07,10,06,57,11.10
2009,07,10,06,58,11.20
2009,07,10,06,59,11.20
2009,07,10,07,00,11.20
2009,07,10,07,01,11.20
2009,07,10,07,02,11.30
2009,07,10,07,03,11.30
2009,07,10,07,04,11.40
2009,07,10,07,05,11.40
2009,07,10,07,06,11.50
2009,07,10,07,07,11.60
2009,07,10,07,08,11.60
2009,07,10,07,09,11.70
2009,07,10,07,10,11.70
2009,07,10,07,11,11.80
2009,07,10,07,12,11.80
2009,07,10,07,13,11.90
2009,07,10,07,14,11.80
2009,07,10,07,15,11.80
2009,07,10,07,16,11.80
2009,07,10,07,17,11.80
2009,07,10,07,18,11.90
2009,07,10,07,19,11.90
2009,07,10,07,20,12.00
2009,07,10,07,21,12.10
2009,07,10,07,22,12.10
2009,07,10,07,23,12.20
2009,07,10,07,24,12.30
2009,07,10,07,25,12.40
2009,07,10,07,26,12.50
2009,07,10,07,27,12.50
2009,07,10,07,28,12.60
2009,07,10,07,29,12.70
2009,07,10,07,30,12.70
2009,07,10,07,31,12.80
2009,07,10,07,32,12.80
2009,07,10,07,33,12.80
2009,07,10,07,34,12.80
2009,07,10,07,35,12.80
2009,07,10,07,36,12.80
2009,07,10,07,37,12.70
2009,07,10,07,38,12.70
2009,07,10,07,39,12.70
2009,07,10,07,40,12.80
2009,07,10,07,41,12.80
2009,07,10,07,42,12.80
2009,07,10,07,43,12.90
2009,07,10,07,44,13.00
2009,07,10,07,45,13.10
2009,07,10,07,46,13.20
2009,07,10,07,47,13.20
2009,07,10,07,48,13.30
2009,07,10,07,49,13.40
2009,07,10,07,50,13.60
2009,07,10,07,51,13.70
2009,07,10,07,52,13.70
2009,07,10,07,53,13.70
2009,07,10,07,54,13.80
2009,07,10,07,55,13.90
2009,07,10,07,56,13.90
2009,07,10,07,57,14.00
2009,07,10,07,58,14.20
2009,07,10,07,59,14.20
2009,07,10,08,00,14.30
2009,07,10,08,01,14.50
2009,07,10,08,02,14.50
2009,07,10,08,03,14.60
2009,07,10,08,04,14.70
2009,07,10,08,05,14.70
2009,07,10,08,06,14.80
2009,07,10,08,07,14.80
2009,07,10,08,08,14.80
2009,07,10,08,09,14.90
2009,07,10,08,10,14.90
2009,07,10,08,11,15.00
2009,07,10,08,12,15.10
2009,07,10,08,13,15.20
2009,07,10,08,14,15.30
2009,07,10,08,15,15.50
2009,07,10,08,16,15.60
2009,07,10,08,17,15.80
2009,07,10,08,18,15.90
2009,07,10,08,19,16.00
2009,07,10,08,20,16.10
2009,07,10,08,21,16.20
2009,07,10,08,22,16.20
2009,07,10,08,23,16.30
2009,07,10,08,24,16.30
2009,07,10,08,25,16.30
2009,07,10,08,26,16.40
2009,07,10,08,27,16.40
2009,07,10,08,28,16.40
2009,07,10,08,29,16.40
2009,07,10,08,30,16.40
2009,07,10,08,31,16.50
2009,07,10,08,32,16.60
2009,07,10,08,33,16.60
2009,07,10,08,34,16.60
2009,07,10,08,35,16.70
2009,07,10,08,36,16.70
2009,07,10,08,37,16.70
2009,07,10,08,38,16.70
2009,07,10,08,39,16.70
2009,07,10,08,40,16.70
2009,07,10,08,41,16.70
2009,07,10,08,42,16.70
2009,07,10,08,43,16.70
2009,07,10,08,44,16.70
2009,07,10,08,45,16.70
2009,07,10,08,46,16.70
2009,07,10,08,47,16.70
2009,07,10,08,48,16.70
2009,07,10,08,49,16.70
2009,07,10,08,50,16.70
2009,07,10,08,51,16.70
2009,07,10,08,52,16.80
2009,07,10,08,53,16.90
2009,07,10,08,54,17.00
2009,07,10,08,55,17.00
2009,07,10,08,56,16.90
2009,07,10,08,57,16.90
2009,07,10,08,58,16.90
2009,07,10,08,59,16.90
2009,07,10,09,00,16.90
2009,07,10,09,01,17.00
2009,07,10,09,02,17.00
2009,07,10,09,03,17.00
2009,07,10,09,04,17.00
2009,07,10,09,05,17.00
2009,07,10,09,06,17.00
2009,07,10,09,07,17.10
2009,07,10,09,08,17.30
2009,07,10,09,09,17.30
2009,07,10,09,10,17.30
2009,07,10,09,11,17.30
2009,07,10,09,12,17.30
2009,07,10,09,13,17.30
2009,07,10,09,14,17.30
2009,07,10,09,15,17.20
2009,07,10,09,16,17.20
2009,07,10,09,17,17.20
2009,07,10,09,18,17.20
2009,07,10,09,19,17.30
2009,07,10,09,20,17.30
2009,07,10,09,21,17.30
2009,07,10,09,22,17.40
2009,07,10,09,23,17.50
2009,07,10,09,24,17.70
2009,07,10,09,25,17.80
2009,07,10,09,26,17.90
2009,07,10,09,27,17.90
2009,07,10,09,28,17.90
2009,07,10,09,29,17.70
2009,07,10,09,30,17.80
2009,07,10,09,31,17.70
2009,07,10,09,32,17.60
2009,07,10,09,33,17.70
2009,07,10,09,34,17.60
2009,07,10,09,35,17.50
2009,07,10,09,36,17.50
2009,07,10,09,37,17.50
2009,07,10,09,38,17.50
2009,07,10,09,39,17.50
2009,07,10,09,40,17.60
2009,07,10,09,41,17.60
2009,07,10,09,42,17.80
2009,07,10,09,43,17.90
2009,07,10,09,44,17.90
2009,07,10,09,45,17.90
2009,07,10,09,46,18.10
2009,07,10,09,47,18.20
2009,07,10,09,48,18.30
2009,07,10,09,49,18.40
2009,07,10,09,50,18.50
2009,07,10,09,51,18.50
2009,07,10,09,52,18.60
2009,07,10,09,53,18.60
2009,07,10,09,54,18.60
2009,07,10,09,55,18.70
2009,07,10,09,56,18.70
2009,07,10,09,57,18.80
2009,07,10,09,58,18.80
2009,07,10,09,59,18.70
2009,07,10,10,00,18.10
2009,07,10,10,01,17.80
2009,07,10,10,02,17.50
2009,07,10,10,03,17.30
2009,07,10,10,04,17.10
2009,07,10,10,05,17.00
2009,07,10,10,06,17.00
2009,07,10,10,07,17.10
2009,07,10,10,08,17.30
2009,07,10,10,09,17.40
2009,07,10,10,10,17.50
2009,07,10,10,11,17.50
2009,07,10,10,12,17.50
2009,07,10,10,13,17.50
2009,07,10,10,14,17.40
2009,07,10,10,15,17.30
2009,07,10,10,16,17.30
2009,07,10,10,17,17.30
2009,07,10,10,18,17.40
2009,07,10,10,19,17.50
2009,07,10,10,20,17.60
2009,07,10,10,21,17.70
2009,07,10,10,22,17.80
2009,07,10,10,23,17.90
2009,07,10,10,24,18.10
2009,07,10,10,25,18.30
2009,07,10,10,26,18.40
2009,07,10,10,27,18.40
2009,07,10,10,28,18.30
2009,07,10,10,29,18.20
2009,07,10,10,30,18.40
2009,07,10,10,31,18.50
2009,07,10,10,32,18.60
2009,07,10,10,33,18.70
2009,07,10,10,34,18.70
2009,07,10,10,35,18.70
2009,07,10,10,36,18.70
2009,07,10,10,37,18.60
2009,07,10,10,38,18.60
2009,07,10,10,39,18.70
2009,07,10,10,40,18.90
2009,07,10,10,41,18.90
2009,07,10,10,42,18.80
2009,07,10,10,43,18.80
2009,07,10,10,44,18.80
2009,07,10,10,45,18.60
2009,07,10,10,46,18.50
2009,07,10,10,47,18.60
2009,07,10,10,48,18.50
2009,07,10,10,49,18.50
2009,07,10,10,50,18.30
2009,07,10,10,51,18.40
2009,07,10,10,52,18.40
2009,07,10,10,53,18.40
2009,07,10,10,54,18.50
2009,07,10,10,55,18.60
2009,07,10,10,56,18.80
2009,07,10,10,57,18.90
2009,07,10,10,58,18.90
2009,07,10,10,59,18.90
2009,07,10,11,00,18.90
2009,07,10,11,01,18.90
2009,07,10,11,02,19.00
2009,07,10,11,03,19.10
2009,07,10,11,04,19.30
2009,07,10,11,05,19.60
2009,07,10,11,06,19.80
2009,07,10,11,07,19.90
2009,07,10,11,08,19.60
2009,07,10,11,09,19.50
2009,07,10,11,10,19.40
2009,07,10,11,11,19.40
2009,07,10,11,12,19.50
2009,07,10,11,13,19.60
2009,07,10,11,14,19.70
2009,07,10,11,15,19.60
2009,07,10,11,16,19.70
2009,07,10,11,17,19.80
2009,07,10,11,18,19.80
2009,07,10,11,19,19.60
2009,07,10,11,20,19.40
2009,07,10,11,21,19.20
2009,07,10,11,22,19.10
2009,07,10,11,23,19.10
2009,07,10,11,24,19.20
2009,07,10,11,25,19.20
2009,07,10,11,26,19.20
2009,07,10,11,27,19.40
2009,07,10,11,28,19.50
2009,07,10,11,29,19.50
2009,07,10,11,30,19.40
2009,07,10,11,31,19.30
2009,07,10,11,32,19.10
2009,07,10,11,33,18.90
2009,07,10,11,34,18.90
2009,07,10,11,35,19.00
2009,07,10,11,36,19.10
2009,07,10,11,37,19.10
2009,07,10,11,38,19.00
2009,07,10,11,39,18.90
2009,07,10,11,40,18.70
2009,07,10,11,41,18.50
2009,07,10,11,42,18.30
2009,07,10,11,43,18.30
2009,07,10,11,44,18.30
2009,07,10,11,45,18.20
2009,07,10,11,46,18.20
2009,07,10,11,47,18.30
2009,07,10,11,48,18.50
2009,07,10,11,49,18.60
2009,07,10,11,50,18.60
2009,07,10,11,51,18.60
2009,07,10,11,52,18.70
2009,07,10,11,53,18.70
2009,07,10,11,54,18.70
2009,07,10,11,55,18.70
2009,07,10,11,56,18.80
2009,07,10,11,57,19.00
2009,07,10,11,58,19.30
2009,07,10,11,59,19.60
2009,07,10,12,00,19.80
2009,07,10,12,01,19.90
2009,07,10,12,02,20.00
2009,07,10,12,03,20.10
2009,07,10,12,04,20.10
2009,07,10,12,05,20.10
2009,07,10,12,06,20.00
2009,07,10,12,07,19.90
2009,07,10,12,08,19.70
2009,07,10,12,09,19.40
2009,07,10,12,10,19.30
2009,07,10,12,11,19.40
2009,07,10,12,12,19.40
2009,07,10,12,13,19.40
2009,07,10,12,14,19.40
2009,07,10,12,15,19.50
2009,07,10,12,16,19.50
2009,07,10,12,17,19.60
2009,07,10,12,18,19.70
2009,07,10,12,19,19.70
2009,07,10,12,20,19.70
2009,07,10,12,21,19.60
2009,07,10,12,22,19.60
2009,07,10,12,23,19.50
2009,07,10,12,24,19.50
2009,07,10,12,25,19.60
2009,07,10,12,26,19.60
2009,07,10,12,27,19.70
2009,07,10,12,28,19.60
2009,07,10,12,29,19.60
2009,07,10,12,30,19.70
2009,07,10,12,31,19.90
2009,07,10,12,32,20.00
2009,07,10,12,33,20.10
2009,07,10,12,34,20.10
2009,07,10,12,35,20.10
2009,07,10,12,36,20.10
2009,07,10,12,37,20.20
2009,07,10,12,38,20.20
2009,07,10,12,39,20.20
2009,07,10,12,40,20.20
2009,07,10,12,41,20.20
2009,07,10,12,42,20.30
2009,07,10,12,43,20.40
2009,07,10,12,44,20.40
2009,07,10,12,45,20.40
2009,07,10,12,46,20.40
2009,07,10,12,47,20.60
2009,07,10,12,48,20.70
2009,07,10,12,49,20.80
2009,07,10,12,50,21.10
2009,07,10,12,51,21.20
2009,07,10,12,52,21.40
2009,07,10,12,53,21.50
2009,07,10,12,54,21.30
2009,07,10,12,55,21.10
2009,07,10,12,56,21.00
2009,07,10,12,57,20.80
2009,07,10,12,58,20.60
2009,07,10,12,59,20.60
2009,07,10,13,00,20.60
2009,07,10,13,01,20.80
2009,07,10,13,02,20.70
2009,07,10,13,03,20.80
2009,07,10,13,04,20.60
2009,07,10,13,05,20.40
2009,07,10,13,06,20.30
2009,07,10,13,07,20.30
2009,07,10,13,08,20.30
2009,07,10,13,09,20.20
2009,07,10,13,10,20.30
2009,07,10,13,11,20.50
2009,07,10,13,12,20.50
2009,07,10,13,13,20.60
2009,07,10,13,14,20.70
2009,07,10,13,15,20.70
2009,07,10,13,16,20.70
2009,07,10,13,17,20.70
2009,07,10,13,18,20.60
2009,07,10,13,19,20.70
2009,07,10,13,20,20.50
2009,07,10,13,21,20.40
2009,07,10,13,22,20.50
2009,07,10,13,23,20.60
2009,07,10,13,24,20.70
2009,07,10,13,25,20.70
2009,07,10,13,26,20.60
2009,07,10,13,27,20.60
2009,07,10,13,28,20.70
2009,07,10,13,29,20.70
2009,07,10,13,30,20.90
2009,07,10,13,31,21.00
2009,07,10,13,32,21.10
2009,07,10,13,33,21.20
2009,07,10,13,34,21.10
2009,07,10,13,35,21.00
2009,07,10,13,36,20.90
2009,07,10,13,37,20.80
2009,07,10,13,38,20.70
2009,07,10,13,39,20.70
2009,07,10,13,40,20.60
2009,07,10,13,41,20.70
2009,07,10,13,42,20.70
2009,07,10,13,43,20.70
2009,07,10,13,44,20.80
2009,07,10,13,45,20.90
2009,07,10,13,46,21.00
2009,07,10,13,47,21.10
2009,07,10,13,48,21.00
2009,07,10,13,49,21.00
2009,07,10,13,50,21.00
2009,07,10,13,51,21.20
2009,07,10,13,52,21.30
2009,07,10,13,53,21.30
2009,07,10,13,54,21.30
2009,07,10,13,55,21.30
2009,07,10,13,56,21.30
2009,07,10,13,57,21.40
2009,07,10,13,58,21.40
2009,07,10,13,59,21.40
2009,07,10,14,00,21.60
2009,07,10,14,01,21.80
2009,07,10,14,02,21.90
2009,07,10,14,03,21.90
2009,07,10,14,04,21.90
2009,07,10,14,05,21.90
2009,07,10,14,06,21.90
2009,07,10,14,07,21.90
2009,07,10,14,08,21.90
2009,07,10,14,09,21.90
2009,07,10,14,10,21.90
2009,07,10,14,11,21.90
2009,07,10,14,12,21.90
2009,07,10,14,13,22.00
2009,07,10,14,14,22.10
2009,07,10,14,15,22.10
2009,07,10,14,16,22.10
2009,07,10,14,17,22.00
2009,07,10,14,18,22.00
2009,07,10,14,19,22.10
2009,07,10,14,20,22.10
2009,07,10,14,21,22.20
2009,07,10,14,22,22.00
2009,07,10,14,23,21.80
2009,07,10,14,24,21.60
2009,07,10,14,25,21.50
2009,07,10,14,26,21.40
2009,07,10,14,27,21.40
2009,07,10,14,28,21.60
2009,07,10,14,29,21.70
2009,07,10,14,30,21.80
2009,07,10,14,31,21.90
2009,07,10,14,32,22.00
2009,07,10,14,33,22.10
2009,07,10,14,34,22.10
2009,07,10,14,35,22.10
2009,07,10,14,36,22.10
2009,07,10,14,37,22.30
2009,07,10,14,38,22.20
2009,07,10,14,39,22.20
2009,07,10,14,40,22.20
2009,07,10,14,41,22.30
2009,07,10,14,42,22.20
2009,07,10,14,43,22.20
2009,07,10,14,44,22.20
2009,07,10,14,45,22.20
2009,07,10,14,46,22.20
2009,07,10,14,47,22.20
2009,07,10,14,48,22.20
2009,07,10,14,49,22.20
2009,07,10,14,50,22.20
2009,07,10,14,51,22.20
2009,07,10,14,52,22.30
2009,07,10,14,53,22.30
2009,07,10,14,54,22.30
2009,07,10,14,55,22.30
2009,07,10,14,56,22.30
2009,07,10,14,57,22.60
2009,07,10,14,58,22.50
2009,07,10,14,59,22.50
2009,07,10,15,00,22.60
2009,07,10,15,01,22.70
2009,07,10,15,02,22.80
2009,07,10,15,03,22.80
2009,07,10,15,04,22.80
2009,07,10,15,05,22.70
2009,07,10,15,06,22.50
2009,07,10,15,07,22.50
2009,07,10,15,08,22.20
2009,07,10,15,09,21.90
2009,07,10,15,10,21.80
2009,07,10,15,11,21.70
2009,07,10,15,12,21.80
2009,07,10,15,13,21.80
2009,07,10,15,14,21.90
2009,07,10,15,15,21.90
2009,07,10,15,16,21.90
2009,07,10,15,17,21.90
2009,07,10,15,18,21.90
2009,07,10,15,19,21.90
2009,07,10,15,20,21.90
2009,07,10,15,21,21.90
2009,07,10,15,22,21.90
2009,07,10,15,23,22.00
2009,07,10,15,24,22.10
2009,07,10,15,25,22.20
2009,07,10,15,26,22.40
2009,07,10,15,27,22.50
2009,07,10,15,28,22.60
2009,07,10,15,29,22.40
2009,07,10,15,30,22.40
2009,07,10,15,31,22.30
2009,07,10,15,32,22.30
2009,07,10,15,33,22.40
2009,07,10,15,34,22.30
2009,07,10,15,35,22.30
2009,07,10,15,36,22.30
2009,07,10,15,37,22.40
2009,07,10,15,38,22.30
2009,07,10,15,39,22.30
2009,07,10,15,40,22.40
2009,07,10,15,41,22.40
2009,07,10,15,42,22.30
2009,07,10,15,43,22.20
2009,07,10,15,44,22.20
2009,07,10,15,45,22.10
2009,07,10,15,46,22.10
2009,07,10,15,47,22.00
2009,07,10,15,48,22.00
2009,07,10,15,49,22.10
2009,07,10,15,50,22.10
2009,07,10,15,51,22.10
2009,07,10,15,52,22.10
2009,07,10,15,53,22.20
2009,07,10,15,54,22.30
2009,07,10,15,55,22.50
2009,07,10,15,56,22.60
2009,07,10,15,57,22.70
2009,07,10,15,58,22.70
2009,07,10,15,59,22.70
2009,07,10,16,00,22.70
2009,07,10,16,01,22.60
2009,07,10,16,02,22.60
2009,07,10,16,03,22.60
2009,07,10,16,04,22.70
2009,07,10,16,05,22.60
2009,07,10,16,06,22.60
2009,07,10,16,07,22.70
2009,07,10,16,08,22.70
2009,07,10,16,09,22.70
2009,07,10,16,10,22.80
2009,07,10,16,11,22.90
2009,07,10,16,12,23.10
2009,07,10,16,13,23.10
2009,07,10,16,14,23.00
2009,07,10,16,15,22.60
2009,07,10,16,16,22.50
2009,07,10,16,17,22.30
2009,07,10,16,18,22.10
2009,07,10,16,19,22.00
2009,07,10,16,20,22.00
2009,07,10,16,21,21.90
2009,07,10,16,22,21.90
2009,07,10,16,23,21.70
2009,07,10,16,24,21.80
2009,07,10,16,25,21.70
2009,07,10,16,26,21.70
2009,07,10,16,27,21.80
2009,07,10,16,28,21.70
2009,07,10,16,29,21.80
2009,07,10,16,30,21.80
2009,07,10,16,31,21.80
2009,07,10,16,32,21.90
2009,07,10,16,33,22.00
2009,07,10,16,34,21.90
2009,07,10,16,35,21.80
2009,07,10,16,36,21.90
2009,07,10,16,37,21.90
2009,07,10,16,38,21.90
2009,07,10,16,39,22.00
2009,07,10,16,40,22.10
2009,07,10,16,41,22.10
2009,07,10,16,42,21.90
2009,07,10,16,43,21.90
2009,07,10,16,44,22.00
2009,07,10,16,45,21.90
2009,07,10,16,46,21.80
2009,07,10,16,47,21.70
2009,07,10,16,48,21.70
2009,07,10,16,49,21.90
2009,07,10,16,50,22.00
2009,07,10,16,51,22.20
2009,07,10,16,52,22.30
2009,07,10,16,53,22.50
2009,07,10,16,54,22.50
2009,07,10,16,55,22.50
2009,07,10,16,56,22.40
2009,07,10,16,57,22.40
2009,07,10,16,58,22.40
2009,07,10,16,59,22.50
2009,07,10,17,00,22.40
2009,07,10,17,01,22.40
2009,07,10,17,02,22.40
2009,07,10,17,03,22.30
2009,07,10,17,04,22.20
2009,07,10,17,05,22.20
2009,07,10,17,06,22.10
2009,07,10,17,07,22.20
2009,07,10,17,08,22.10
2009,07,10,17,09,22.10
2009,07,10,17,10,22.10
2009,07,10,17,11,21.90
2009,07,10,17,12,21.80
2009,07,10,17,13,21.80
2009,07,10,17,14,21.90
2009,07,10,17,15,21.90
2009,07,10,17,16,21.80
2009,07,10,17,17,21.90
2009,07,10,17,18,21.90
2009,07,10,17,19,22.00
2009,07,10,17,20,22.10
2009,07,10,17,21,22.20
2009,07,10,17,22,22.20
2009,07,10,17,23,22.20
2009,07,10,17,24,22.20
2009,07,10,17,25,22.00
2009,07,10,17,26,22.00
2009,07,10,17,27,22.00
2009,07,10,17,28,22.00
2009,07,10,17,29,22.00
2009,07,10,17,30,21.90
2009,07,10,17,31,21.60
2009,07,10,17,32,21.50
2009,07,10,17,33,21.40